Back to catalog

ATLAS CENTAUR 2 DEB

AliveLEO
NORAD 700·DEBRIS·🇺🇸 United States

Launched Nov 27, 1963 from Cape Canaveral Space Force Station

Loading…

Next Passes (next 24 hours)

TLE

FreshSource: Space-Track

Epoch: Sep 14, 2026, 12:41 UTC

1 00700U 63047F   26257.52849567  .00000133  00000-0  32777-4 0  9992
2 00700  30.4795 308.7854 0716868  61.0272 306.0267 13.40251946 62126

Track ATLAS CENTAUR 2 DEB in real time with AllMySat

Download on the App Store